Mattoon, IL

8:14 AM CDT on October 18, 2019 (GMT -0500)
Coles County Memorial

Weather History for KMTO - May, 2019

Change the Weather History Date:

Tuesday, May 21, 2019

  Actual Average Record
Temperature  
Mean Temperature 55 °F 65 °F  
Max Temperature 64 °F 75 °F 94 °F (1987)
Min Temperature 46 °F 54 °F 32 °F (2002)
Degree Days  
Heating Degree Days 10 3  
Month to date heating degree days 130 105  
Since 1 July heating degree days 5517 5367  
Cooling Degree Days 0 3  
Month to date cooling degree days 33 39  
Year to date cooling degree days 38 53  
Growing Degree Days 5 (Base 50)    
Moisture  
Dew Point 50 °F    
Average Humidity 76    
Maximum Humidity 90    
Minimum Humidity 61    
Precipitation  
Precipitation 0.92 in 0.15 in 1.05 in (1953)
Month to date precipitation 2.00 3.18  
Year to date precipitation 11.02 13.16  
Sea Level Pressure  
Sea Level Pressure 29.90 in    
Wind  
Wind Speed 14 mph (ESE)    
Max Wind Speed 25 mph    
Max Gust Speed 38 mph    
Visibility 8 miles    
Events Rain , Thunderstorm    
T = Trace of Precipitation, MM = Missing Value Source: NWS Daily Summary

Daily Weather History Graph

Daily Weather History Graph

Search for Another Location

Airport or City:

Astronomy

May. 21, 2019 Rise Set
Actual Time 5:34 AM CDT 8:05 PM CDT
Civil Twilight 5:03 AM CDT 8:36 PM CDT
Nautical Twilight 4:25 AM CDT 9:14 PM CDT
Astronomical Twilight 3:42 AM CDT 9:57 PM CDT
Moon 11:00 PM CDT (5/21) 7:50 AM CDT (5/21)
Length of Visible Light 15h 32m
Length of Day
14h 31m
Waning Gibbous, 91% of the Moon is Illuminated
May 21
Waning Gibbous
May 26
Last Quarter
Jun 3
New
Jun 10
First Quarter
Jun 17
Full

Hourly Weather History & Observations

Time (CDT) Temp. Windchill Dew Point Humidity Pressure Visibility Wind Dir Wind Speed Gust Speed Precip Events Conditions
12:53 AM 50.0 °F - 39.0 °F 66% 30.09 in 10.0 mi NE 9.2 mph - N/A   Clear
1:53 AM 50.0 °F - 37.9 °F 63% 30.03 in 10.0 mi NE 13.8 mph - N/A   Clear
2:53 AM 48.9 °F - 39.0 °F 69% 30.02 in 10.0 mi ENE 13.8 mph - N/A   Clear
3:53 AM 48.0 °F - 39.9 °F 74% 30.03 in 10.0 mi ENE 13.8 mph - N/A   Scattered Clouds
4:53 AM 46.9 °F - 41.0 °F 80% 30.12 in 10.0 mi Variable 4.6 mph - 0.00 in Rain Light Rain
5:53 AM 46.0 °F 43.1 °F 43.0 °F 89% 30.06 in 9.0 mi East 5.8 mph - 0.10 in Rain Light Rain
6:53 AM 46.9 °F - 45.0 °F 93% 29.99 in 10.0 mi East 11.5 mph 21.9 mph 0.01 in   Overcast
7:53 AM 48.0 °F - 43.0 °F 83% 29.99 in 10.0 mi ESE 16.1 mph 27.6 mph N/A   Overcast
8:53 AM 50.0 °F - 44.1 °F 80% 29.98 in 10.0 mi ESE 15.0 mph 27.6 mph N/A   Overcast
9:53 AM 52.0 °F - 45.0 °F 77% 29.97 in 10.0 mi ESE 16.1 mph 26.5 mph N/A   Overcast
10:53 AM 52.0 °F - 46.0 °F 80% 29.97 in 10.0 mi East 12.7 mph 20.7 mph N/A   Overcast
11:53 AM 54.0 °F - 48.0 °F 80% 29.95 in 10.0 mi ESE 16.1 mph 21.9 mph N/A   Overcast
12:44 PM 55.9 °F - 48.9 °F 77% 29.94 in 10.0 mi East 15.0 mph 20.7 mph N/A   Overcast
12:53 PM 55.9 °F - 48.9 °F 77% 29.95 in 10.0 mi ESE 15.0 mph 24.2 mph N/A   Overcast
1:53 PM 57.0 °F - 50.0 °F 77% 29.92 in 10.0 mi East 19.6 mph 31.1 mph N/A   Overcast
2:53 PM 59.0 °F - 52.0 °F 78% 29.91 in 10.0 mi East 17.3 mph 24.2 mph N/A   Overcast
3:53 PM 59.0 °F - 53.1 °F 81% 29.88 in 10.0 mi East 17.3 mph 24.2 mph N/A   Overcast
4:53 PM 60.1 °F - 53.1 °F 78% 29.85 in 10.0 mi ESE 20.7 mph 27.6 mph N/A   Overcast
5:19 PM 61.0 °F - 53.1 °F 75% 29.83 in 10.0 mi ESE 19.6 mph 32.2 mph N/A   Scattered Clouds
5:53 PM 60.1 °F - 53.1 °F 78% 29.81 in 10.0 mi ESE 19.6 mph 33.4 mph N/A   Clear
6:53 PM 60.1 °F - 53.1 °F 78% 29.81 in 10.0 mi East 15.0 mph 29.9 mph N/A   Clear
7:53 PM 59.0 °F - 52.0 °F 78% 29.80 in 10.0 mi East 13.8 mph 28.8 mph N/A   Clear
8:53 PM 60.1 °F - 52.0 °F 75% 29.80 in 10.0 mi East 16.1 mph 23.0 mph N/A   Clear
9:53 PM 61.0 °F - 53.1 °F 75% 29.75 in 10.0 mi East 23.0 mph 32.2 mph N/A   Clear
10:39 PM 62.1 °F - 54.0 °F 75% 29.82 in 10.0 mi WSW 11.5 mph 24.2 mph N/A Thunderstorm Overcast
10:53 PM 63.0 °F - 54.0 °F 72% 29.83 in 10.0 mi West 6.9 mph 27.6 mph 0.00 in Rain , Thunderstorm Light Rain
11:01 PM 64.0 °F - 55.0 °F 73% 29.83 in 3.0 mi Variable 6.9 mph 17.3 mph 0.11 in Rain , Thunderstorm Heavy Thunderstorms and Rain
11:03 PM 63.0 °F - 55.9 °F 78% 29.80 in 1.8 mi East 10.4 mph 17.3 mph 0.24 in Rain , Thunderstorm Heavy Thunderstorms and Rain
11:17 PM 61.0 °F - 57.9 °F 90% 29.83 in 2.5 mi Variable 4.6 mph - 0.37 in Rain , Thunderstorm Heavy Rain
11:20 PM 60.1 °F - 57.9 °F 93% 29.84 in 2.5 mi West 6.9 mph - 0.40 in Rain Rain
11:32 PM 60.1 °F - 57.9 °F 93% 29.84 in 1.5 mi SSE 5.8 mph - 0.52 in Rain Heavy Rain
11:34 PM 61.0 °F - 57.9 °F 90% 29.84 in 1.8 mi SE 8.1 mph - 0.53 in Rain , Thunderstorm Heavy Rain
11:39 PM 61.0 °F - 57.9 °F 90% 29.84 in 2.0 mi ESE 8.1 mph - 0.54 in Rain , Thunderstorm Rain
11:53 PM 60.1 °F - 57.9 °F 93% 29.84 in 2.0 mi SE 4.6 mph - 0.62 in Rain , Thunderstorm Heavy Rain